Total_Precipitation_Accumulation
0.03 0.03 0.03 0.04 0.04 0.03 0.02 0.01 0.01 0.02 0.02 0.02 0.03 0.02 0.03 0.04 0.01 0.00 0.00 0.00 0.00 0.00 0.00 0.00 0.00 0.00 0.00 0.00 0.00 0.00 0.00 0.00 0.00 0.02 0.13 0.21 0.32 0.22 0.08 0.04 0.30 0.54 0.94 1.19 0.83
0.05 0.04 0.04 0.04 0.03 0.03 0.04 0.02 0.02 0.01 0.02 0.02 0.02 0.02 0.03 0.04 0.00 0.00 0.00 0.00 0.00 0.00 0.00 0.00 0.00 0.00 0.00 0.00 0.00 0.00 0.00 0.00 0.00 0.01 0.12 0.16 0.03 0.15 0.24 0.16 0.39 0.91 1.20 0.77 0.45
0.05 0.05 0.05 0.05 0.04 0.04 0.02 0.02 0.02 0.02 0.02 0.02 0.02 0.02 0.02 0.02 0.00 0.00 0.00 0.00 0.00 0.00 0.00 0.00 0.00 0.00 0.00 0.00 0.00 0.00 0.00 0.00 0.00 0.01 0.11 0.03 0.01 0.03 0.08 0.25 0.76 1.55 1.68 0.86 0.56
0.07 0.05 0.06 0.06 0.06 0.05 0.03 0.03 0.03 0.03 0.03 0.03 0.03 0.03 0.03 0.01 0.00 0.00 0.00 0.00 0.00 0.00 0.00 0.00 0.00 0.00 0.00 0.00 0.00 0.00 0.00 0.00 0.00 0.00 0.02 0.05 0.07 0.06 0.31 0.75 0.42 0.36 0.51 0.68 0.79
0.10 0.08 0.07 0.07 0.08 0.06 0.05 0.03 0.04 0.04 0.03 0.04 0.04 0.05 0.04 0.02 0.00 0.00 0.00 0.00 0.00 0.00 0.00 0.00 0.00 0.00 0.00 0.00 0.00 0.00 0.00 0.00 0.01 0.01 0.01 0.01 0.06 0.11 0.25 0.10 0.07 0.18 0.29 0.52 0.58
0.37 0.27 0.21 0.15 0.11 0.09 0.09 0.06 0.05 0.05 0.05 0.06 0.08 0.10 0.07 0.03 0.00 0.00 0.00 0.00 0.00 0.00 0.00 0.00 0.00 0.00 0.00 0.00 0.00 0.00 0.00 0.00 0.02 0.00 0.00 0.00 0.23 0.18 0.54 0.16 0.08 0.05 0.18 0.41 0.34
0.98 0.87 0.69 0.55 0.37 0.23 0.16 0.10 0.08 0.12 0.14 0.15 0.16 0.12 0.09 0.01 0.00 0.00 0.00 0.00 0.00 0.00 0.00 0.00 0.00 0.00 0.00 0.00 0.00 0.00 0.00 0.00 0.00 0.01 0.01 0.04 0.22 0.14 0.13 0.10 0.06 0.02 0.06 0.16 0.09
1.25 1.12 0.95 0.75 0.63 0.48 0.30 0.20 0.17 0.13 0.17 0.30 0.36 0.22 0.11 0.00 0.00 0.00 0.00 0.00 0.00 0.00 0.00 0.00 0.00 0.00 0.00 0.00 0.00 0.00 0.00 0.00 0.00 0.01 0.02 0.11 0.51 0.05 0.05 0.03 0.03 0.02 0.03 0.03 0.09
1.33 1.37 1.20 1.02 0.76 0.53 0.43 0.33 0.24 0.26 0.33 0.33 0.42 0.32 0.08 0.00 0.00 0.00 0.00 0.02 0.00 0.00 0.00 0.00 0.00 0.00 0.00 0.00 0.00 0.00 0.00 0.00 0.00 0.00 0.01 0.05 0.35 0.22 0.07 0.08 0.05 0.01 0.00 0.00 0.00
1.36 1.41 1.43 1.35 1.21 1.01 0.79 0.60 0.48 0.52 0.60 0.65 0.53 0.26 0.02 0.00 0.00 0.00 0.00 0.02 0.01 0.00 0.00 0.00 0.00 0.00 0.00 0.00 0.00 0.00 0.00 0.00 0.02 0.07 0.00 0.00 0.03 0.16 0.19 0.07 0.04 0.01 0.00 0.00 0.00
1.20 1.22 1.25 1.31 1.37 1.45 1.28 1.22 1.09 0.94 0.72 0.35 0.20 0.06 0.00 0.00 0.00 0.00 0.00 0.00 0.00 0.00 0.02 0.00 0.00 0.00 0.00 0.00 0.00 0.00 0.00 0.00 0.00 0.00 0.00 0.00 0.00 0.02 0.14 0.04 0.02 0.03 0.01 0.01 0.00
1.40 1.40 1.21 1.19 1.36 1.58 1.46 1.29 0.83 0.62 0.51 0.09 0.01 0.00 0.00 0.00 0.00 0.00 0.00 0.03 0.02 0.03 0.03 0.04 0.01 0.00 0.00 0.00 0.00 0.00 0.00 0.00 0.00 0.00 0.00 0.00 0.00 0.00 0.02 0.00 0.00 0.00 0.00 0.00 0.00
1.19 1.56 1.73 1.61 1.75 1.94 1.81 1.27 0.63 0.54 0.74 0.22 0.05 0.01 0.00 0.00 0.00 0.00 0.00 0.02 0.04 0.03 0.04 0.04 0.02 0.00 0.00 0.00 0.00 0.00 0.00 0.00 0.00 0.00 0.00 0.00 0.00 0.00 0.00 0.02 0.07 0.01 0.00 0.00 0.00
1.24 1.60 1.95 2.50 3.20 2.16 1.94 0.97 0.83 1.12 1.42 0.52 0.06 0.03 0.01 0.00 0.01 0.00 0.00 0.01 0.05 0.03 0.10 0.17 0.00 0.01 0.01 0.00 0.01 0.01 0.00 0.01 0.00 0.04 0.01 0.02 0.03 0.02 0.01 0.02 0.06 0.01 0.01 0.00 0.01
1.35 1.71 2.12 2.58 2.22 2.15 1.41 0.69 1.52 2.25 3.52 0.76 0.03 0.00 0.00 0.01 0.01 0.00 0.00 0.00 0.02 0.06 0.28 0.16 0.01 0.01 0.00 0.00 0.01 0.01 0.00 0.02 0.03 0.06 0.12 0.03 0.15 0.03 0.02 0.00 0.02 0.01 0.00 0.00 0.01
1.49 1.69 2.36 2.57 2.31 1.26 0.71 1.39 3.16 5.40 4.75 0.67 0.02 0.01 0.02 0.01 0.00 0.00 0.00 0.00 0.02 0.18 0.20 0.03 0.01 0.05 0.02 0.00 0.00 0.00 0.04 0.10 0.13 0.17 0.32 0.03 0.15 0.10 0.03 0.02 0.06 0.08 0.05 0.02 0.02
1.83 1.95 2.28 1.93 2.31 1.48 1.74 3.40 6.07 6.42 2.48 0.40 0.04 0.02 0.01 0.01 0.00 0.00 0.02 0.02 0.07 0.23 0.24 0.07 0.05 0.04 0.01 0.03 0.01 0.03 0.19 0.52 0.50 0.23 0.17 0.04 0.08 0.09 0.07 0.18 0.31 0.31 0.26 0.15 0.11
2.23 2.54 2.50 2.10 1.71 2.18 3.81 5.91 7.11 3.62 1.18 0.18 0.05 0.07 0.09 0.04 0.02 0.02 0.10 0.09 0.07 0.09 0.24 0.27 0.16 0.04 0.06 0.05 0.08 0.07 0.29 0.51 0.59 0.21 0.09 0.04 0.05 0.05 0.13 0.20 0.37 0.61 0.47 0.38 0.24
2.94 3.31 3.43 2.91 2.72 3.49 5.87 8.94 5.59 1.77 0.34 0.08 0.10 0.23 0.30 0.26 0.16 0.16 0.28 0.32 0.24 0.30 0.79 0.74 0.29 0.03 0.05 0.04 0.19 0.35 0.43 0.18 0.90 0.65 0.69 0.12 0.04 0.12 0.24 0.35 0.30 0.43 0.43 0.38 0.32
2.79 3.34 3.28 2.85 3.54 5.13 7.57 6.98 3.16 0.81 0.14 0.11 0.35 0.26 0.27 0.25 0.41 0.46 0.49 0.61 0.43 0.42 0.88 1.29 1.41 0.18 0.09 0.21 0.21 0.37 0.35 1.04 2.20 2.26 1.23 0.34 0.35 1.06 1.02 0.67 0.95 0.83 0.49 0.36 0.31
3.46 4.42 3.13 2.72 5.16 8.03 8.68 4.94 2.16 0.64 0.33 0.45 0.35 0.48 0.31 0.30 0.55 0.68 0.75 0.62 0.82 0.36 0.60 1.03 1.70 0.86 0.39 0.43 0.34 0.55 1.01 1.82 2.25 1.82 1.51 1.21 1.69 1.70 1.87 1.21 0.92 0.49 0.37 0.41 0.31
4.63 4.81 3.14 3.44 6.38 7.30 5.55 2.87 1.37 0.56 0.58 0.88 0.66 0.38 0.44 0.42 0.50 0.66 0.82 0.87 0.82 0.59 0.56 0.89 1.71 1.23 0.44 0.20 0.23 0.73 1.46 2.56 4.04 3.23 2.51 2.48 2.83 2.16 1.73 1.43 0.79 0.25 0.11 0.11 0.26
5.57 4.17 4.11 4.69 5.59 4.24 2.84 2.15 1.36 0.66 0.62 1.29 1.07 0.66 0.56 0.48 1.05 0.60 0.61 0.76 0.95 0.90 0.79 0.94 1.69 1.69 1.01 0.78 0.67 1.30 1.55 1.95 2.86 3.47 3.32 3.41 3.05 2.21 1.46 0.71 0.38 0.34 0.22 0.12 0.16
6.45 5.87 6.20 6.19 3.96 2.46 1.90 1.63 1.32 0.72 0.49 0.75 0.97 0.55 0.77 1.09 1.05 1.04 0.59 0.75 0.96 0.80 0.62 1.41 1.09 1.39 1.09 0.82 1.06 1.17 0.99 1.47 2.44 2.94 2.14 1.88 1.58 1.20 0.76 0.35 0.19 0.13 0.09 0.10 0.12
8.40 4.59 2.93 3.79 2.71 2.02 1.80 1.79 1.04 1.01 1.02 0.75 0.93 0.64 0.73 1.30 1.19 0.84 0.62 0.99 1.19 0.93 0.81 1.60 1.48 1.25 0.92 0.40 0.48 0.78 0.79 0.81 1.48 1.29 1.64 1.10 0.70 0.73 1.02 0.50 0.18 0.14 0.10 0.15 0.17
8.34 2.92 1.54 1.08 0.99 1.67 1.65 1.65 0.90 0.82 1.42 1.20 1.17 0.75 0.75 0.89 0.81 0.93 0.96 0.88 1.15 0.85 1.17 1.85 2.03 1.48 1.52 0.54 0.73 0.97 0.90 0.59 0.82 0.69 0.68 0.42 0.42 0.44 0.69 0.66 0.39 0.26 0.17 0.22 0.25
6.64 1.70 2.05 1.60 0.88 1.36 1.57 1.22 0.99 1.24 1.12 0.67 0.87 0.93 0.95 0.95 0.78 0.58 0.69 0.82 0.78 0.86 1.22 1.95 2.67 2.36 2.16 0.69 0.99 1.70 0.88 0.62 0.53 0.30 0.26 0.34 0.27 0.38 0.66 0.76 0.67 0.49 0.30 0.30 0.28